Pokemongo.shopping | Find Gardevoir in Rimini

#282 Gardevoir
[unseen]

Share on Share on

Gardevoir model

Gardevoir has the ability to read the future. If it senses impending danger to its Trainer, this Pokémon is said to unleash its psychokinetic energy at full power.

Psychic Fairy

When was it last seen? Never
How many times was it seen? : 0 seen
Spawn rate : 0 / day
Gyms protected by Gardevoir : 4
Next Evolution Requirements : Final Form
Best quick move : ?
Best special move : ?

Where can you hunt Gardevoir?

Loading

Gardevoir stats breakdown

1 / 10
Battle rating

2964
highest CP

54 %
compared to highest in game

119
highest HP

29 %
compared to highest in game

Trainer with the best Gardevoir

# Name CP IV 1. Move 2. Move Seen
1 Gc1119 2964 100.0 % Confusion Shadow Ball 2018-01-17
2 kyttwood 2964 100.0 % Confusion Dazzling Gleam 2018-01-17
3 Pokemariaaa1 2964 100.0 % Confusion Dazzling Gleam 2018-01-17
4 SFArticuno 2958 97.8 % Confusion Dazzling Gleam 2018-01-17
5 ImperiumFrank 2795 100.0 % Confusion Dazzling Gleam 2018-01-17
6 yh3ng 2774 100.0 % Confusion Dazzling Gleam 2018-01-17
7 LoVeMiX30 2753 100.0 % Confusion Psychic 2018-01-17
8 Miguelangelitoh 2753 100.0 % Confusion Psychic 2018-01-17
9 Quocry 2753 100.0 % Confusion Dazzling Gleam 2018-01-17
10 Abc12335kkk 2742 97.8 % Confusion Dazzling Gleam 2018-01-17
11 Sofia181104 2720 80.0 % Confusion Dazzling Gleam 2018-01-17
12 19FAKER87 2710 100.0 % Confusion Dazzling Gleam 2018-01-17
13 TaitanTanawat 2692 77.8 % Confusion Shadow Ball 2018-01-17
14 Cierra629 2679 86.7 % Confusion Dazzling Gleam 2018-01-17
15 Zoombini1 2674 91.1 % Charge Beam Dazzling Gleam 2018-01-16
16 TheBhargavBros 2672 73.3 % Confusion Dazzling Gleam 2018-01-17
17 Ritzbear 2667 73.3 % Charge Beam Shadow Ball 2018-01-17
18 actan446 2657 88.9 % Confusion Dazzling Gleam 2018-01-17
19 ayingsial 2653 95.6 % Charge Beam Dazzling Gleam 2018-01-17
20 Jadedsalamander 2650 95.6 % Confusion Dazzling Gleam 2018-01-17
21 1DragonFlyer 2646 86.7 % Charge Beam Dazzling Gleam 2018-01-17
22 changhsin3631 2645 68.9 % Confusion Shadow Ball 2018-01-17
23 ThaGodofBalls 2640 73.3 % Confusion Dazzling Gleam 2018-01-17
24 phnang1990 2634 91.1 % Charge Beam Psychic 2018-01-17
25 sweetbread730 2631 82.2 % Confusion Dazzling Gleam 2018-01-17
26 Bushy4 2620 60.0 % Charge Beam Dazzling Gleam 2018-01-17
27 Kkenad 2611 77.8 % Confusion Dazzling Gleam 2018-01-17
28 Lhappy88 2603 93.3 % Confusion Dazzling Gleam 2018-01-17
29 Henriquebasss 2595 80.0 % Charge Beam Shadow Ball 2018-01-17
30 jarpereyra 2592 71.1 % Confusion Shadow Ball 2018-01-17
31 rpzi1511 2592 77.8 % Confusion Shadow Ball 2018-01-17
32 ergbesafe 2590 55.6 % Charge Beam Dazzling Gleam 2018-01-17
33 MalditaDinamita 2583 100.0 % Confusion Dazzling Gleam 2018-01-17
34 LagroSssaw6 2582 80.0 % Charge Beam Psychic 2018-01-17
35 jevon28 2578 97.8 % Charge Beam Dazzling Gleam 2018-01-17
36 tangaiksim 2577 51.1 % Confusion Dazzling Gleam 2018-01-17
37 Nestea9758 2576 73.3 % Confusion Psychic 2018-01-17
38 Itsmeitsme1 2574 64.4 % Charge Beam Psychic 2018-01-17
39 AceSkyBear 2570 91.1 % Confusion Dazzling Gleam 2018-01-17
40 TAKEDYUYA 2569 95.6 % Confusion Dazzling Gleam 2018-01-17
41 AzaelHazel 2566 77.8 % Charge Beam Dazzling Gleam 2018-01-17
42 Famsaccc 2566 68.9 % Charge Beam Shadow Ball 2018-01-17
43 MichaelJX24 2565 95.6 % Confusion Psychic 2018-01-17
44 ChikChikEn 2556 66.7 % Confusion Dazzling Gleam 2018-01-17
45 jeremymenve 2556 73.3 % Confusion Psychic 2018-01-17
46 pharaoh14 2556 66.7 % Charge Beam Shadow Ball 2018-01-17
47 Yazar83 2556 82.2 % Confusion Dazzling Gleam 2018-01-17
48 yamazaki44227 2555 88.9 % Confusion Psychic 2018-01-17
49 Lvaleriar 2549 75.6 % Charge Beam Shadow Ball 2018-01-17
50 drhammod80 2547 66.7 % Confusion Shadow Ball 2018-01-17